When you browse on this site, cookies collect data to enhance your experience and personalize the content and advertising you see.
Visit our Privacy Policy to learn more. By continuing to use the site, you agree to this use of cookies and data.
  • In Österreich
  • Länderverzeichnis
  • Für 7 Tage
  • Wassertemperatur
  • Satellitenkarten
  • Wetterkarte
  • News
  • Widgets
  • user-avatar
    Anmelden

    Stündliche Wetter Lyubachin

    Heute, 19 Juli, Freitag

    Zeit Temperatur Niederschläge Wind Luftdruck Luftfeuchtigkeit
    00:00 +13°C° 0 mm 3 m/S 747 mmHg 95%
    01:00 +13°C° 0 mm 3 m/S 747 mmHg 95%
    02:00 +12°C° 0 mm 3 m/S 747 mmHg 96%
    03:00 +12°C° 0 mm 3 m/S 747 mmHg 96%
    04:00 +12°C° 0 mm 3 m/S 748 mmHg 96%
    05:00 +13°C° 0 mm 2 m/S 748 mmHg 96%
    06:00 +13°C° 0 mm 3 m/S 748 mmHg 92%
    07:00 +16°C° 0 mm 3 m/S 748 mmHg 88%
    08:00 +18°C° 0 mm 3 m/S 749 mmHg 84%
    09:00 +19°C° 0.3 mm 3 m/S 749 mmHg 79%
    10:00 +20°C° 0.3 mm 4 m/S 749 mmHg 74%
    11:00 +22°C° 0.3 mm 4 m/S 749 mmHg 69%
    12:00 +22°C° 0.3 mm 4 m/S 749 mmHg 67%
    13:00 +23°C° 0.3 mm 4 m/S 749 mmHg 64%
    14:00 +23°C° 0.3 mm 4 m/S 749 mmHg 61%
    15:00 +23°C° 0.4 mm 4 m/S 749 mmHg 65%
    16:00 +24°C° 0.4 mm 3 m/S 749 mmHg 68%
    17:00 +22°C° 0.4 mm 3 m/S 749 mmHg 71%
    18:00 +21°C° 0.2 mm 3 m/S 749 mmHg 76%
    19:00 +19°C° 0.2 mm 2 m/S 749 mmHg 81%
    20:00 +19°C° 0.2 mm 1 m/S 749 mmHg 86%
    21:00 +17°C° 0 mm 2 m/S 750 mmHg 87%
    22:00 +16°C° 0 mm 2 m/S 750 mmHg 88%
    23:00 +15°C° 0 mm 2 m/S 750 mmHg 90%

    Morgen, 20 Juli, Samstag

    Zeit Temperatur Niederschläge Wind Luftdruck Luftfeuchtigkeit
    00:00 +15°C° 0 mm 2 m/S 750 mmHg 90%
    01:00 +14°C° 0 mm 2 m/S 750 mmHg 90%
    02:00 +14°C° 0 mm 1 m/S 750 mmHg 90%
    03:00 +14°C° 0 mm 1 m/S 751 mmHg 90%
    04:00 +14°C° 0 mm 1 m/S 751 mmHg 90%
    05:00 +14°C° 0 mm 1 m/S 751 mmHg 90%
    06:00 +15°C° 0 mm 1 m/S 751 mmHg 86%
    07:00 +18°C° 0 mm 1 m/S 752 mmHg 82%
    08:00 +20°C° 0 mm 1 m/S 752 mmHg 78%
    09:00 +21°C° 0.1 mm 1 m/S 752 mmHg 71%
    10:00 +23°C° 0.1 mm 1 m/S 752 mmHg 65%
    11:00 +24°C° 0.1 mm 1 m/S 753 mmHg 59%
    12:00 +25°C° 0 mm 1 m/S 752 mmHg 57%
    13:00 +25°C° 0 mm 1 m/S 752 mmHg 55%
    14:00 +25°C° 0 mm 1 m/S 752 mmHg 53%
    15:00 +25°C° 0 mm 1 m/S 752 mmHg 54%
    16:00 +25°C° 0 mm 1 m/S 752 mmHg 54%
    17:00 +25°C° 0 mm 1 m/S 752 mmHg 55%
    18:00 +24°C° 0 mm 1 m/S 752 mmHg 60%
    19:00 +22°C° 0 mm 1 m/S 752 mmHg 65%
    20:00 +20°C° 0 mm 1 m/S 752 mmHg 70%
    21:00 +19°C° 0 mm 1 m/S 753 mmHg 72%
    22:00 +18°C° 0 mm 1 m/S 753 mmHg 73%
    23:00 +18°C° 0 mm 1 m/S 753 mmHg 75%

    übermorgen, 21 Juli, Sonntag

    Zeit Temperatur Niederschläge Wind Luftdruck Luftfeuchtigkeit
    00:00 +16°C° 0 mm 1 m/S 753 mmHg 77%
    01:00 +16°C° 0 mm 1 m/S 753 mmHg 78%
    02:00 +15°C° 0 mm 1 m/S 753 mmHg 80%
    03:00 +15°C° 0 mm 1 m/S 753 mmHg 81%
    04:00 +15°C° 0 mm 1 m/S 753 mmHg 83%
    05:00 +15°C° 0 mm 1 m/S 753 mmHg 84%
    06:00 +18°C° 0 mm 1 m/S 753 mmHg 80%
    07:00 +20°C° 0 mm 1 m/S 753 mmHg 76%
    08:00 +22°C° 0 mm 1 m/S 753 mmHg 72%
    09:00 +23°C° 0 mm 2 m/S 753 mmHg 67%
    10:00 +24°C° 0 mm 2 m/S 753 mmHg 63%
    11:00 +26°C° 0 mm 2 m/S 753 mmHg 59%
    12:00 +26°C° 0 mm 2 m/S 753 mmHg 56%
    13:00 +27°C° 0 mm 2 m/S 752 mmHg 54%
    14:00 +28°C° 0 mm 2 m/S 752 mmHg 51%
    15:00 +28°C° 0 mm 2 m/S 752 mmHg 54%
    16:00 +28°C° 0 mm 2 m/S 751 mmHg 56%
    17:00 +28°C° 0 mm 1 m/S 751 mmHg 58%
    18:00 +26°C° 0.2 mm 2 m/S 751 mmHg 66%
    19:00 +24°C° 0.2 mm 2 m/S 751 mmHg 73%
    20:00 +23°C° 0.2 mm 2 m/S 751 mmHg 81%
    21:00 +21°C° 1.1 mm 3 m/S 750 mmHg 85%
    22:00 +20°C° 1.1 mm 3 m/S 750 mmHg 89%
    23:00 +20°C° 1.1 mm 3 m/S 750 mmHg 94%

    22 Juli, Montag

    Zeit Temperatur Niederschläge Wind Luftdruck Luftfeuchtigkeit
    00:00 +19°C° 0.3 mm 3 m/S 750 mmHg 95%
    01:00 +19°C° 0.3 mm 3 m/S 750 mmHg 95%
    02:00 +19°C° 0.3 mm 3 m/S 750 mmHg 96%
    03:00 +18°C° 0 mm 3 m/S 750 mmHg 96%
    04:00 +17°C° 0 mm 3 m/S 750 mmHg 96%
    05:00 +16°C° 0 mm 3 m/S 750 mmHg 95%
    06:00 +17°C° 0 mm 3 m/S 750 mmHg 94%
    07:00 +18°C° 0 mm 3 m/S 750 mmHg 92%
    08:00 +19°C° 0 mm 3 m/S 750 mmHg 90%
    09:00 +21°C° 0 mm 3 m/S 750 mmHg 83%
    10:00 +23°C° 0 mm 4 m/S 750 mmHg 76%
    11:00 +25°C° 0 mm 4 m/S 751 mmHg 69%
    12:00 +26°C° 0 mm 4 m/S 750 mmHg 66%
    13:00 +26°C° 0 mm 5 m/S 750 mmHg 64%
    14:00 +27°C° 0 mm 5 m/S 750 mmHg 61%
    15:00 +26°C° 0.4 mm 5 m/S 750 mmHg 66%
    16:00 +25°C° 0.4 mm 4 m/S 750 mmHg 70%
    17:00 +25°C° 0.4 mm 4 m/S 750 mmHg 74%
    18:00 +22°C° 0.2 mm 4 m/S 750 mmHg 79%
    19:00 +21°C° 0.2 mm 3 m/S 750 mmHg 84%
    20:00 +20°C° 0.2 mm 3 m/S 750 mmHg 88%
    21:00 +19°C° 0 mm 3 m/S 750 mmHg 90%
    22:00 +18°C° 0 mm 3 m/S 750 mmHg 92%
    23:00 +18°C° 0 mm 3 m/S 750 mmHg 94%

    23 Juli, Dienstag

    Zeit Temperatur Niederschläge Wind Luftdruck Luftfeuchtigkeit
    00:00 +17°C° 0 mm 3 m/S 750 mmHg 94%
    01:00 +17°C° 0 mm 3 m/S 750 mmHg 95%
    02:00 +17°C° 0 mm 4 m/S 750 mmHg 96%
    03:00 +15°C° 0 mm 4 m/S 750 mmHg 96%
    04:00 +15°C° 0 mm 4 m/S 750 mmHg 96%
    05:00 +15°C° 0 mm 4 m/S 750 mmHg 96%
    06:00 +15°C° 0 mm 4 m/S 750 mmHg 94%
    07:00 +17°C° 0 mm 4 m/S 750 mmHg 92%
    08:00 +17°C° 0 mm 4 m/S 750 mmHg 89%
    09:00 +19°C° 0 mm 5 m/S 750 mmHg 84%
    10:00 +20°C° 0 mm 5 m/S 750 mmHg 79%
    11:00 +21°C° 0 mm 5 m/S 750 mmHg 74%
    12:00 +22°C° 0.2 mm 5 m/S 750 mmHg 72%
    13:00 +22°C° 0.2 mm 5 m/S 750 mmHg 71%
    14:00 +23°C° 0.2 mm 5 m/S 750 mmHg 70%
    15:00 +23°C° 0 mm 5 m/S 750 mmHg 70%
    16:00 +23°C° 0 mm 5 m/S 750 mmHg 70%
    17:00 +23°C° 0 mm 5 m/S 750 mmHg 71%
    18:00 +22°C° 0.4 mm 4 m/S 750 mmHg 77%
    19:00 +20°C° 0.4 mm 4 m/S 750 mmHg 83%
    20:00 +19°C° 0.4 mm 3 m/S 750 mmHg 90%
    21:00 +18°C° 0 mm 3 m/S 750 mmHg 91%
    22:00 +17°C° 0 mm 2 m/S 750 mmHg 93%
    23:00 +16°C° 0 mm 2 m/S 750 mmHg 94%

    24 Juli, Mittwoch

    Zeit Temperatur Niederschläge Wind Luftdruck Luftfeuchtigkeit
    00:00 +16°C° 0 mm 2 m/S 750 mmHg 94%
    01:00 +16°C° 0 mm 2 m/S 750 mmHg 94%
    02:00 +16°C° 0 mm 2 m/S 750 mmHg 94%
    03:00 +16°C° 0 mm 2 m/S 750 mmHg 94%
    04:00 +15°C° 0 mm 2 m/S 749 mmHg 95%
    05:00 +15°C° 0 mm 2 m/S 749 mmHg 95%
    06:00 +17°C° 0 mm 2 m/S 749 mmHg 92%
    07:00 +18°C° 0 mm 3 m/S 750 mmHg 89%
    08:00 +19°C° 0 mm 3 m/S 750 mmHg 86%
    09:00 +20°C° 0.2 mm 3 m/S 749 mmHg 79%
    10:00 +21°C° 0.2 mm 4 m/S 749 mmHg 71%
    11:00 +22°C° 0.2 mm 4 m/S 749 mmHg 63%
    12:00 +23°C° 0 mm 5 m/S 749 mmHg 61%
    13:00 +23°C° 0 mm 5 m/S 749 mmHg 59%
    14:00 +23°C° 0 mm 5 m/S 749 mmHg 56%
    15:00 +23°C° 0 mm 5 m/S 749 mmHg 59%
    16:00 +22°C° 0 mm 5 m/S 749 mmHg 62%
    17:00 +22°C° 0 mm 5 m/S 749 mmHg 65%
    18:00 +20°C° 0 mm 4 m/S 749 mmHg 69%
    19:00 +19°C° 0 mm 3 m/S 748 mmHg 73%
    20:00 +17°C° 0 mm 3 m/S 748 mmHg 78%
    21:00 +17°C° 0 mm 2 m/S 748 mmHg 80%
    22:00 +16°C° 0 mm 2 m/S 748 mmHg 82%
    23:00 +15°C° 0 mm 2 m/S 748 mmHg 85%
    Mehr zeigen